CW5619 Weather Reports


time (UTC)temp
C
wind
direction
speed
KPH
gust
KPH
rain 1hr
cm
rain 24hr
cm
rain mn
cm
humidity
%
barometer
mb
20260505083403 15 110 6.4 12.9 0.13 0.48 0.20 87 1012.8
20260505082904 15 125 4.8 12.9 0.15 0.48 0.20 87 1013.2
20260505081403 15 116 3.2 12.9 0.13 0.43 0.15 86 1013.7
20260505080904 15 94 3.2 12.9 0.10 0.41 0.13 86 1013.7
20260505080404 15 122 4.8 12.9 0.10 0.41 0.13 86 1014.0
20260505075904 15 114 3.2 11.3 0.13 0.41 0.13 87 1014.1
20260505075403 15 119 3.2 11.3 0.10 0.38 0.10 87 1014.4
20260505074904 15 117 1.6 11.3 0.13 0.38 0.10 87 1014.4
20260505074404 15 138 3.2 11.3 0.13 0.38 0.10 87 1014.2
20260505073904 15 134 3.2 12.9 0.10 0.36 0.08 87 1014.2
20260505072904 15 113 3.2 9.7 0.10 0.33 0.05 87 1014.5
20260505072404 15 102 0.0 4.8 0.10 0.30 0.03 87 1014.6
20260505071404 15 119 1.6 3.2 0.10 0.30 0.03 87 1014.5
20260505070903 15 120 0.0 4.8 0.10 0.30 0.03 86 1014.4
20260505070403 15 119 1.6 4.8 0.10 0.30 0.03 86 1014.2
20260505065404 15 113 1.6 4.8 0.08 0.28 0.28 86 1014.4
20260505064903 15 110 0.0 1.6 0.08 0.25 0.25 87 1014.6
20260505064404 15 110 0.0 3.2 0.08 0.25 0.25 86 1014.4
20260505063903 15 153 0.0 3.2 0.08 0.25 0.25 85 1014.4
20260505063403 16 175 0.0 1.6 0.05 0.23 0.23 84 1014.4
20260505062903 16 175 0.0 1.6 0.08 0.23 0.23 84 1014.3
20260505062403 16 183 0.0 1.6 0.05 0.20 0.20 83 1014.4
20260505061903 16 187 0.0 0.0 0.05 0.20 0.20 84 1014.5
20260505061403 16 187 0.0 0.0 0.05 0.20 0.20 83 1014.6
20260505060903 16 187 0.0 0.0 0.05 0.20 0.20 83 1014.6
20260505060403 16 187 0.0 0.0 0.05 0.20 0.20 82 1014.5
20260505055904 16 187 0.0 0.0 0.05 0.20 0.20 82 1014.5
20260505055404 16 187 0.0 4.8 0.05 0.20 0.20 81 1014.4
20260505054404 16 193 1.6 4.8 0.03 0.18 0.18 81 1014.2
20260505053904 15 219 1.6 3.2 0.03 0.18 0.18 81 1014.3
20260505053403 15 107 0.0 4.8 0.03 0.18 0.18 82 1014.2
20260505052904 15 73 1.6 4.8 0.00 0.15 0.15 81 1014.1
20260505052404 15 117 1.6 4.8 0.00 0.15 0.15 81 1014.2
20260505051904 15 93 1.6 4.8 0.03 0.15 0.15 83 1014.2
20260505051404 15 97 1.6 4.8 0.03 0.15 0.15 83 1014.1
20260505050903 15 101 0.0 3.2 0.03 0.15 0.15 84 1014.0
20260505040905 15 115 0.0 3.2 0.08 0.13 0.13 76 1014.3
20260505040403 15 187 0.0 3.2 0.05 0.10 0.10 72 1014.5
20260505035404 16 203 1.6 9.7 0.03 0.08 0.08 67 1014.6
20260505034903 16 158 3.2 9.7 0.00 0.05 0.05 62 1014.4
20260505034403 17 214 3.2 8.0 0.00 0.05 0.05 60 1014.3
20260505032904 17 230 1.6 4.8 0.00 0.05 0.05 59 1013.8
20260505032403 17 249 1.6 4.8 0.00 0.05 0.05 59 1013.5
20260505031904 17 161 1.6 11.3 0.00 0.05 0.05 58 1013.4
20260505031404 17 128 1.6 19.3 0.00 0.05 0.05 57 1013.0
20260505030905 17 104 8.0 20.9 0.00 0.05 0.05 55 1012.6
20260505025904 17 110 8.0 16.1 0.00 0.05 0.05 55 1012.8
20260505025403 17 120 6.4 16.1 0.03 0.05 0.05 55 1013.3
20260505024904 17 142 6.4 19.3 0.03 0.05 0.05 55 1013.4
20260505024404 17 105 4.8 19.3 0.03 0.05 0.05 56 1013.2
20260505023903 17 105 4.8 20.9 0.05 0.05 0.05 58 1013.1
20260505023404 17 110 8.0 20.9 0.05 0.05 0.05 60 1013.1
20260505022904 17 115 6.4 19.3 0.05 0.05 0.05 62 1012.9
20260505022404 16 114 6.4 19.3 0.05 0.05 0.05 64 1013.2
20260505021904 16 111 4.8 16.1 0.05 0.05 0.05 66 1013.4
20260505021404 17 102 1.6 9.7 0.05 0.05 0.05 66 1013.3
20260505020905 17 160 1.6 8.0 0.05 0.05 0.05 63 1013.5
20260505015403 17 117 1.6 4.8 0.03 0.03 0.03 59 1014.0
20260505014903 18 308 1.6 3.2 0.03 0.03 0.03 56 1014.0
20260505014405 18 282 0.0 3.2 0.03 0.03 0.03 53 1014.0
20260505013903 18 265 1.6 3.2 0.00 0.00 0.00 53 1014.0
20260505013404 19 244 0.0 1.6 0.00 0.00 0.00 53 1013.9
20260505012903 19 244 0.0 4.8 0.00 0.00 0.00 49 1014.0
20260505011404 19 192 1.6 4.8 0.00 0.00 0.00 44 1013.5
20260505010903 19 198 1.6 8.0 0.00 0.00 0.00 45 1013.5
20260505005904 19 142 3.2 9.7 0.00 0.00 0.00 45 1013.3
20260505005404 19 179 4.8 9.7 0.00 0.00 0.00 45 1013.4
20260505004903 20 188 4.8 9.7 0.00 0.00 0.00 45 1013.6
20260505004404 20 189 4.8 11.3 0.00 0.00 0.00 42 1013.6
20260505003403 21 199 4.8 14.5 0.00 0.00 0.00 38 1013.3
20260505002903 21 197 3.2 12.9 0.00 0.00 0.00 38 1013.2
20260505002403 21 220 3.2 12.9 0.00 0.00 0.00 38 1013.4
20260505001904 21 193 4.8 12.9 0.00 0.00 0.00 37 1013.3
20260505001403 21 183 6.4 12.9 0.00 0.00 0.00 36 1013.2
20260505000904 22 209 3.2 19.3 0.00 0.00 0.00 36 1013.1
20260505000405 22 201 3.2 19.3 0.00 0.00 0.00 36 1013.0
20260504235904 22 197 4.8 19.3 0.00 0.00 0.00 36 1013.0
20260504235404 22 205 3.2 8.0 0.00 0.00 0.00 36 1012.8
20260504234904 22 186 1.6 4.8 0.00 0.00 0.00 37 1012.5
20260504234403 22 215 1.6 4.8 0.00 0.00 0.00 37 1012.6
20260504233903 22 151 1.6 4.8 0.00 0.00 0.00 35 1012.5
20260504233404 22 65 3.2 14.5 0.00 0.00 0.00 39 1012.5
20260504232904 22 266 3.2 14.5 0.00 0.00 0.00 38 1012.8
20260504232404 22 22 3.2 14.5 0.00 0.00 0.00 39 1012.9
20260504231903 23 60 3.2 9.7 0.00 0.00 0.00 37 1013.1
20260504231404 23 346 1.6 19.3 0.00 0.00 0.00 34 1013.3
20260504230403 24 185 8.0 19.3 0.00 0.00 0.00 31 1013.3
20260504225903 25 235 9.7 20.9 0.00 0.00 0.00 25 1013.3
20260504225404 25 231 4.8 20.9 0.00 0.00 0.00 24 1013.1
20260504224904 26 233 8.0 19.3 0.00 0.00 0.00 22 1012.8
20260504224404 26 227 8.0 19.3 0.00 0.00 0.00 21 1012.7
20260504223903 26 232 8.0 16.1 0.00 0.00 0.00 20 1012.7
20260504223404 26 197 4.8 16.1 0.00 0.00 0.00 20 1012.6
20260504222903 26 259 4.8 19.3 0.00 0.00 0.00 20 1012.7
20260504222405 26 248 8.0 19.3 0.00 0.00 0.00 19 1012.6
20260504221904 27 229 4.8 14.5 0.00 0.00 0.00 19 1012.7
20260504221405 27 250 3.2 12.9 0.00 0.00 0.00 20 1012.6
20260504220903 27 224 4.8 12.9 0.00 0.00 0.00 19 1012.6
20260504220403 27 224 4.8 14.5 0.00 0.00 0.00 19 1012.6
20260504215904 27 247 4.8 14.5 0.00 0.00 0.00 19 1012.9
20260504215403 27 227 4.8 12.9 0.00 0.00 0.00 19 1013.0
20260504214904 27 231 4.8 14.5 0.00 0.00 0.00 18 1013.0
20260504214404 27 236 4.8 16.1 0.00 0.00 0.00 18 1012.8
20260504213903 27 222 4.8 16.1 0.00 0.00 0.00 18 1012.8
20260504213404 27 207 6.4 20.9 0.00 0.00 0.00 17 1012.7
20260504212903 27 205 4.8 20.9 0.00 0.00 0.00 17 1012.6
20260504212404 28 204 3.2 16.1 0.00 0.00 0.00 17 1012.6
20260504211404 28 240 4.8 14.5 0.00 0.00 0.00 18 1012.6
20260504210403 27 266 3.2 11.3 0.00 0.00 0.00 18 1012.5
20260504205903 27 218 4.8 12.9 0.00 0.00 0.00 18 1012.7
20260504205405 27 217 3.2 16.1 0.00 0.00 0.00 18 1012.8
20260504204403 28 207 3.2 9.7 0.00 0.00 0.00 18 1012.6
20260504203903 28 232 3.2 8.0 0.00 0.00 0.00 21 1012.7
20260504203403 27 90 1.6 11.3 0.00 0.00 0.00 21 1012.5
20260504202903 27 189 3.2 19.3 0.00 0.00 0.00 21 1012.5
20260504202405 28 241 9.7 19.3 0.00 0.00 0.00 20 1012.7
20260504201903 28 217 1.6 14.5 0.00 0.00 0.00 21 1012.4
20260504201404 27 271 3.2 14.5 0.00 0.00 0.00 21 1012.5
20260504200903 28 255 1.6 4.8 0.00 0.00 0.00 20 1012.6
20260504200404 27 315 1.6 9.7 0.00 0.00 0.00 19 1012.5
20260504195904 27 248 3.2 16.1 0.00 0.00 0.00 19 1012.5
20260504195404 27 254 3.2 16.1 0.00 0.00 0.00 19 1012.7
20260504194903 27 231 8.0 16.1 0.00 0.00 0.00 18 1012.8
20260504194403 27 240 4.8 14.5 0.00 0.00 0.00 18 1012.7
20260504193903 27 209 3.2 9.7 0.00 0.00 0.00 19 1012.6
20260504193404 27 205 3.2 11.3 0.00 0.00 0.00 19 1012.6
20260504192904 27 178 3.2 12.9 0.00 0.00 0.00 19 1012.5
20260504192405 27 197 3.2 12.9 0.00 0.00 0.00 19 1012.4
20260504191903 26 109 1.6 14.5 0.00 0.00 0.00 20 1012.4
20260504191403 27 113 3.2 14.5 0.00 0.00 0.00 20 1012.5
20260504190904 27 192 3.2 14.5 0.00 0.00 0.00 20 1012.5
20260504190403 27 197 4.8 14.5 0.00 0.00 0.00 20 1012.5
20260504184904 27 228 3.2 12.9 0.00 0.00 0.00 20 1012.6
20260504184404 27 245 4.8 19.3 0.00 0.00 0.00 20 1012.8
20260504183904 27 219 8.0 19.3 0.00 0.00 0.00 20 1012.9
20260504183404 27 216 6.4 11.3 0.00 0.00 0.00 20 1013.0
20260504182904 27 229 4.8 11.3 0.00 0.00 0.00 20 1013.1
20260504182403 27 164 3.2 11.3 0.00 0.00 0.00 21 1013.3
20260504181904 26 207 4.8 11.3 0.00 0.00 0.00 21 1013.4
20260504181404 26 188 3.2 12.9 0.00 0.00 0.00 22 1013.4
20260504180904 26 197 4.8 12.9 0.00 0.00 0.00 22 1013.3
20260504180404 26 205 6.4 12.9 0.00 0.00 0.00 22 1013.4
20260504175904 26 213 4.8 14.5 0.00 0.00 0.00 21 1013.4
20260504175405 26 226 4.8 14.5 0.00 0.00 0.00 21 1013.4
20260504174404 26 219 4.8 16.1 0.00 0.00 0.00 21 1013.2
20260504173404 26 240 8.0 19.3 0.00 0.00 0.00 23 1013.3
20260504172903 26 227 9.7 16.1 0.00 0.00 0.00 23 1013.4
20260504172403 26 213 6.4 16.1 0.00 0.00 0.00 23 1013.4
20260504171904 26 196 3.2 14.5 0.00 0.00 0.00 23 1013.4
20260504171405 26 236 8.0 14.5 0.00 0.00 0.00 22 1013.4
20260504170903 26 145 4.8 9.7 0.00 0.00 0.00 25 1013.4
20260504170404 26 168 3.2 12.9 0.00 0.00 0.00 25 1013.4
20260504150404 23 117 4.8 14.5 0.00 0.00 0.00 31 1013.3
20260504140903 22 166 1.6 9.7 0.00 0.00 0.00 33 1013.2
20260504130404 21 117 3.2 4.8 0.00 0.00 0.00 34 1012.4
20260504110404 21 101 0.0 3.2 0.00 0.00 0.00 34 1011.7
20260504100404 22 195 1.6 4.8 0.00 0.00 0.00 33 1011.9